IRIDIUM 98 [-]

Last updated on Aug. 17, 2018, 12:20 a.m. UTC

1 27451U 02031B   18228.77955699  .01857813 -12754-5  44837-3 0  9990
2 27451  86.3815 201.5400 0264067 223.8857 134.1177 15.79747299852676

Satellite is not in orbit.